{"data":{"norad_id":66734,"epoch":"2026-09-19T23:00:47.447136Z","epoch_age_seconds":64997,"freshness":"FRESH","line1":"1 66734U 25276BW  26262.95888249  .00004369  00000+0  20223-3 0  9992","line2":"2 66734  97.4091 334.7234 0004945  62.6829 297.4910 15.20632752 44811","mean_motion":15.20632752,"eccentricity":0.0004945,"inclination_deg":97.4091,"raan_deg":334.7234,"arg_perigee_deg":62.6829,"mean_anomaly_deg":297.491,"bstar":0.00020223,"rev_number":4481,"period_min":94.697421064097,"perigee_km":500.52763291686,"apogee_km":507.33399798635,"semimajor_km":6882.0678154516,"source":"CELESTRAK","updated_at":"2026-09-20T09:00:34.753353Z"}}